McComb, MS

6:35 AM CDT on August 21, 2017 (GMT -0500)
McComb-Pike County-Lewis

Weather History for KMCB - March, 2013

Change the Weather History Date:

Saturday, March 23, 2013

  Actual Average Record
Temperature  
Mean Temperature 66 °F -  
Max Temperature 71 °F 71 °F 84 °F (1991)
Min Temperature 62 °F 45 °F 28 °F (1986)
Cooling Degree Days 2    
Growing Degree Days 16 (Base 50)    
Moisture  
Dew Point 64 °F    
Average Humidity 96    
Maximum Humidity 100    
Minimum Humidity 83    
Precipitation  
Precipitation 0.04 in - - ()
Sea Level Pressure  
Sea Level Pressure 29.71 in    
Wind  
Wind Speed 4 mph (ESE)    
Max Wind Speed 9 mph    
Max Gust Speed -    
Visibility 3 miles    
Events Fog , Rain    
Averages and records for this station are not official NWS values.
T = Trace of Precipitation, MM = Missing Value Source: NWS Daily Summary

Daily Weather History Graph

Daily Weather History Graph

Search for Another Location

Airport or City:

Trip Planner

Search our weather history database for the weather conditions in past years. The results will help you decide how hot, cold, wet, or windy it might be!

Date:

Astronomy

Mar. 23, 2013 Rise Set
Actual Time 7:01 AM CDT 7:15 PM CDT
Civil Twilight 6:37 AM CDT 7:39 PM CDT
Nautical Twilight 6:09 AM CDT 8:08 PM CDT
Astronomical Twilight 5:40 AM CDT 8:36 PM CDT
Moon 3:54 PM CDT (3/23) 4:24 AM CDT (3/23)
Length of Visible Light 13h 02m
Length of Day
12h 13m
Waxing Gibbous, 85% of the Moon is Illuminated
Mar 23
Waxing Gibbous
Mar 27
Full
Apr 2
Last Quarter
Apr 10
New
Apr 18
First Quarter

Hourly Weather History & Observations

Time (CDT) Temp. Dew Point Humidity Pressure Visibility Wind Dir Wind Speed Gust Speed Precip Events Conditions
12:53 AM 62.1 °F 60.1 °F 93% 29.82 in 8.0 mi SSE 8.1 mph - N/A   Overcast
1:53 AM 62.1 °F 60.1 °F 93% 29.81 in 7.0 mi SE 4.6 mph - N/A   Overcast
2:53 AM 62.1 °F 61.0 °F 96% 29.80 in 4.0 mi SSE 6.9 mph - N/A   Overcast
3:07 AM 62.6 °F 60.8 °F 94% 29.80 in 3.0 mi SSE 8.1 mph - N/A   Overcast
3:41 AM 62.6 °F 60.8 °F 94% 29.78 in 2.0 mi SSE 6.9 mph - N/A   Overcast
3:51 AM 62.6 °F 62.6 °F 100% 29.78 in 1.5 mi SSE 8.1 mph - N/A   Overcast
3:53 AM 62.1 °F 61.0 °F 96% 29.77 in 1.5 mi SSE 9.2 mph - N/A   Overcast
4:18 AM 62.6 °F 62.6 °F 100% 29.78 in 2.0 mi SSE 6.9 mph - N/A   Overcast
4:29 AM 62.6 °F 62.6 °F 100% 29.78 in 1.5 mi SSE 8.1 mph - N/A   Overcast
4:50 AM 62.6 °F 62.6 °F 100% 29.77 in 0.8 mi SSE 5.8 mph - N/A   Mist
4:53 AM 62.1 °F 62.1 °F 100% 29.76 in 0.8 mi SE 5.8 mph - N/A   Mist
5:53 AM 62.1 °F 62.1 °F 100% 29.76 in 0.2 mi Calm Calm - N/A Fog Fog
6:30 AM 62.6 °F 62.6 °F 100% 29.78 in 0.5 mi Calm Calm - N/A Fog Fog
6:53 AM 62.1 °F 62.1 °F 100% 29.76 in 0.5 mi ESE 3.5 mph - N/A Fog Fog
7:38 AM 62.6 °F 62.6 °F 100% 29.79 in 0.2 mi Calm Calm - N/A Fog Fog
7:53 AM 62.1 °F 62.1 °F 100% 29.79 in 0.2 mi ENE 3.5 mph - N/A Fog Fog
8:32 AM 62.6 °F 62.6 °F 100% 29.81 in 0.5 mi Variable 3.5 mph - N/A Fog Fog
8:53 AM 62.1 °F 62.1 °F 100% 29.80 in 0.5 mi ENE 4.6 mph - N/A Fog Fog
9:53 AM 62.1 °F 62.1 °F 100% 29.82 in 0.5 mi Calm Calm - N/A Fog Fog
10:33 AM 62.6 °F 62.6 °F 100% 29.84 in 1.2 mi Calm Calm - N/A   Overcast
10:53 AM 63.0 °F 62.1 °F 97% 29.83 in 1.2 mi Calm Calm - N/A   Overcast
11:43 AM 62.6 °F 62.6 °F 100% 29.82 in 2.5 mi East 3.5 mph - N/A   Overcast
11:53 AM 63.0 °F 63.0 °F 100% 29.81 in 2.0 mi ESE 3.5 mph - N/A   Overcast
12:26 PM 64.4 °F 62.6 °F 94% 29.80 in 4.0 mi Calm Calm - N/A   Overcast
12:53 PM 64.9 °F 63.0 °F 93% 29.77 in 7.0 mi East 3.5 mph - N/A   Overcast
1:40 PM 68.0 °F 64.4 °F 88% 29.74 in 10.0 mi Variable 4.6 mph - N/A   Overcast
1:53 PM 68.0 °F 64.9 °F 90% 29.73 in 10.0 mi Calm Calm - N/A   Overcast
2:53 PM 69.1 °F 64.9 °F 87% 29.68 in 10.0 mi ENE 5.8 mph - N/A   Overcast
3:36 PM 71.6 °F 66.2 °F 83% 29.67 in 10.0 mi Variable 3.5 mph - N/A   Overcast
3:53 PM 70.0 °F 66.0 °F 87% 29.65 in 10.0 mi Calm Calm - N/A   Overcast
4:42 PM 68.0 °F 66.2 °F 94% 29.64 in 1.8 mi East 4.6 mph - 0.01 in Rain Light Rain
4:53 PM 68.0 °F 66.0 °F 93% 29.62 in 2.5 mi Calm Calm - 0.01 in Rain Light Rain
5:05 PM 66.2 °F 66.2 °F 100% 29.63 in 1.8 mi East 4.6 mph - 0.01 in Rain Light Rain
5:27 PM 66.2 °F 66.2 °F 100% 29.62 in 1.5 mi ENE 5.8 mph - 0.01 in   Overcast
5:44 PM 66.2 °F 66.2 °F 100% 29.62 in 3.0 mi ENE 4.6 mph - 0.01 in   Overcast
5:53 PM 66.9 °F 66.0 °F 97% 29.60 in 4.0 mi Variable 3.5 mph - 0.01 in Rain Light Rain
6:53 PM 66.0 °F 64.9 °F 96% 29.59 in 3.0 mi East 3.5 mph - 0.01 in   Overcast
7:33 PM 66.2 °F 64.4 °F 94% 29.59 in 2.0 mi Calm Calm - N/A   Overcast
7:50 PM 66.2 °F 64.4 °F 94% 29.59 in 3.0 mi East 3.5 mph - 0.00 in   Overcast
7:53 PM 66.0 °F 64.9 °F 96% 29.58 in 3.0 mi Calm Calm - 0.00 in   Overcast
8:22 PM 66.2 °F 64.4 °F 94% 29.59 in 2.5 mi Calm Calm - N/A   Overcast
8:30 PM 66.2 °F 64.4 °F 94% 29.59 in 3.0 mi Calm Calm - N/A   Overcast
8:44 PM 64.4 °F 64.4 °F 100% 29.58 in 2.5 mi Calm Calm - 0.00 in Rain Light Rain
9:04 PM 64.4 °F 64.4 °F 100% 29.59 in 2.0 mi SSE 3.5 mph - N/A   Overcast
9:53 PM 64.9 °F 64.9 °F 100% 29.59 in 1.8 mi SSE 3.5 mph - 0.01 in Rain Light Rain
10:37 PM 66.2 °F 64.4 °F 94% 29.59 in 0.8 mi Calm Calm - 0.00 in   Mist
10:53 PM 66.0 °F 64.9 °F 96% 29.58 in 0.5 mi Calm Calm - 0.00 in Fog Fog
11:53 PM 66.0 °F 66.0 °F 100% 29.58 in 0.2 mi Calm Calm - N/A Fog Fog